Regional Weather Roundup
Issued by NWS State College, PA

Home | Current Version | Previous Version | Text Only | Print | Product List | Glossary On
Versions: 1 2 3 4 5 6 7 8 9 10 11 12 13 14 15 16 17 18 19 20 21 22 23 24 25 26 27 28 29 30 31 32 33 34 35 36 37 38 39 40 41 42 43 44 45 46 47 48 49 50
000
ASUS41 KCTP 290310
RWRCTP

REGIONAL WEATHER ROUNDUP
NATIONAL WEATHER SERVICE STATE COLLEGE PA
1100 PM EDT SUN AUG 28 2016

Note: "fair" indicates few or no clouds below 12,000 feet with no
significant weather and/or obstructions to visibility.

* = STATION THAT DOES NOT REPORT PRECIPITATION /E.G. RAIN...SNOW...ETC/
    THUNDER OR FOG.

PAZ002>004-007>009-013>016-020>023-029>032-290400-
WESTERN PENNSYLVANIA

CITY           SKY/WX    TMP DP  RH WIND       PRES   REMARKS
ERIE           MOCLDY    76  73  91 CALM      30.20R
MEADVILLE      CLEAR     72  69  90 CALM      30.24R
FRANKLIN*        N/A     70  66  88 SE8       30.26R
NEW CASTLE     FAIR      70  69  97 SE7       30.24R
BEAVER COUNTY  NOT AVBL
BUTLER*        NOT AVBL
PITTSBURGH INT CLOUDY    73  66  78 VRB3      30.24R
PITTSBURGH     CLOUDY    70  67  90 E9        30.22F
INDIANA*       CLOUDY    70  66  88 S9G16     30.25F
LATROBE        LGT RAIN  70  70 100 E10G17    30.23F
WASHINGTON CO* MOCLDY    70  66  88 CALM      30.24R
$$

PAZ004>006-010>012-017>019-024>028-033>037-041-042-045-046-049>053-290400-
CENTRAL PENNSYLVANIA

CITY           SKY/WX    TMP DP  RH WIND       PRES   REMARKS
BRADFORD       CLOUDY    68  67  96 CALM      30.27R
DUBOIS         CLOUDY    68  64  87 CALM      30.25S
CLEARFIELD     NOT AVBL
JOHNSTOWN      TSTM      65  65 100 SE3       30.33F FOG
ALTOONA        TSTM      67  67 100 NW9       30.31R FOG
STATE COLLEGE  RAIN      68  66  93 W12       30.23R
WILLIAMSPORT   CLOUDY    75  64  68 W5        30.18R
SELINSGROVE    PTCLDY    74  69  85 S6        30.17F
FT INDIANTOWN  CLEAR     70  65  84 CALM      30.19S
CAPITAL CITY   CLEAR     77  64  64 W5        30.19R
HARRISBURG     MOCLDY    79  68  69 VRB3      30.19R
YORK           PTCLDY    71  66  84 W3        30.21R
$$

PAZ038>040-043-044-047-048-054-055-060>062-067>071-290400-
EASTERN PENNSYLVANIA

CITY           SKY/WX    TMP DP  RH WIND       PRES   REMARKS
SCRANTON       PTCLDY    77  63  61 SW3       30.19R
MOUNT POCONO   CLEAR     68  61  78 W5        30.23R
ALLENTOWN      CLEAR     75  63  66 SW3       30.17R
QUAKERTOWN*    CLEAR     72  64  78 CALM      30.20R
READING        CLOUDY    76  64  66 SW5       30.17S
LANCASTER      CLOUDY    76  67  73 SW3       30.19R
COATESVILLE    PTCLDY    73  64  73 CALM      30.22R
POTTSTOWN      PTCLDY    72  65  78 CALM      30.21R
BLUE BELL      CLEAR     73  64  73 SW7       30.19R
DOYLESTOWN     CLEAR     77  66  68 S5        30.19R
WILLOW GROVE   NOT AVBL
NORTH PHILA    CLEAR     77  66  68 S3        30.20R
PHILADELPHIA   CLEAR     77  65  66 S7        30.20R
$$




USA.gov is the U.S. government's official web portal to all federal, state and local government web resources and services.